sat.trackr.live / text

‹ back to catalog

KUIPER-00230

NORAD 68579 · 2026-072G

PAYLOAD ACTIVE UNKNOWN

§ Identity

Operator
Country
US
Launch date
2026-04-04
Launch site
AFETR
Launch vehicle
Mass (kg)
RCS (m²)

External: N2YO · Heavens-Above · Gunter

§ Orbital elements

Epoch: 2026-09-20T04:00:03.000096Z

Period
97.15 min
Inclination
51.9026°
Eccentricity
0.0001223
Mean motion
14.82171163 rev/d
Perigee alt
621.6 km
Apogee alt
623.3 km
Semi-major
7,000.6 km
B*
-1.0602e-2
RAAN
82.8762°
Arg perigee
52.8425°
Mean anomaly
298.5983°
Rev number
137

§ Raw data

KUIPER-002301 68579U 26072G   26263.16670139 -.00084439  00000+0 -10602-1 0  99932 68579  51.9026  82.8762 0001223  52.8425 298.5983 14.82171163  1376

JSON: /api/v1/satellites/68579 · /tle

For live sub-satellite position, see the globe view (requires WebGL).

§ Visibility from observer

Set your observer location to see the next 7 days of passes ≥ 10°. The values pass through the URL so the page stays shareable.

No JS? Fill the form by hand. The geolocation button needs JavaScript.